Location: Sungai Apap
(2.6167°N, 113.3833°E)
Time: 15:07:11
(UTC+00:00)

COSMOS 2428 - Pass Details

Date: 25 May 2024
Orbit: 844 x 856 km, 70.9° (Epoch: 12 June)

Event Time Altitude Azimuth Distance (km) Brightness Sun altitude
Rises 20:28:38 0° 355° (N) 3,395 6.1 -25.5°
Reaches altitude 10° 20:31:09 10° 1° (N) 2,464 5.4 -25.0°
Maximum altitude 20:36:35 48° 74° (ENE) 1,105 3.7 -23.7°
Drops below altitude 10° 20:42:02 10° 148° (SSE) 2,479 5.2 -22.5°
Sets 20:44:34 0° 153° (SSE) 3,418 5.9 -21.9°
